User: anonymous   Login
Location: Iesi
(43.5167°N, 13.2333°E)
Time: 10:39:50
(UTC+00:00)
Language:

MOS 1 - Orbit

View from above orbital plane
View from above orbital plane
View from above satellite
View from above satellite

Ground track
Ground track

The orbit data is extracted from the following two-line orbital elements,

1 17527U 87018A   20304.92501750 -.00000118 +00000-0 -47447-4 0  9996
2 17527 099.1423 348.1306 0009376 132.0293 041.3808 14.02573532721907
Epoch (UTC): 30 October 2020 22:12:01
Eccentricity: 0.0009376
inclination: 99.1423°
perigee height: 878 km
apogee height: 892 km
right ascension of ascending node: 348.1306°
argument of perigee: 132.0293°
revolutions per day: 14.02573532
mean anomaly at epoch: 41.3808°
orbit number at epoch: 72190

The dashed part of the orbit path shows where the satellite is in the earth's shadow,  

DLR